{"data":{"norad_id":58984,"epoch":"2026-09-20T00:01:34.804128Z","epoch_age_seconds":198778,"freshness":"STALE","line1":"1 58984U 24031V   26263.00109727  .00000085  00000+0  13648-4 0  9997","line2":"2 58984  53.1579 111.9716 0000930  82.5525 277.5584 15.34391160146294","mean_motion":15.3439116,"eccentricity":9.3e-5,"inclination_deg":53.1579,"raan_deg":111.9716,"arg_perigee_deg":82.5525,"mean_anomaly_deg":277.5584,"bstar":1.3648e-5,"rev_number":14629,"period_min":93.848298761054,"perigee_km":462.09331409033,"apogee_km":463.36571526206,"semimajor_km":6840.8665146762,"source":"CELESTRAK","updated_at":"2026-09-21T09:00:34.022369Z"}}